| time (UTC) | temp C | wind direction | speed KPH | gust KPH | rain 1hr cm | rain 24hr cm | rain mn cm | humidity % | barometer mb |
| 20260906230049 | 25 | 290 | 8.0 | 19.3 | 0.00 | 0.00 | 0.00 | 24 | 1019.3 |
| 20260906225548 | 25 | 286 | 8.0 | 17.7 | 0.00 | 0.00 | 0.00 | 24 | 1019.2 |
| 20260906225038 | 26 | 293 | 9.7 | 24.1 | 0.00 | 0.00 | 0.00 | 23 | 1019.0 |
| 20260906224534 | 27 | 274 | 9.7 | 19.3 | 0.00 | 0.00 | 0.00 | 23 | 1019.3 |
| 20260906224030 | 27 | 274 | 9.7 | 14.5 | 0.00 | 0.00 | 0.00 | 22 | 1019.2 |
| 20260906223526 | 27 | 313 | 11.3 | 17.7 | 0.00 | 0.00 | 0.00 | 23 | 1019.2 |
| 20260906223025 | 27 | 294 | 14.5 | 19.3 | 0.00 | 0.00 | 0.00 | 22 | 1019.2 |
| 20260906222524 | 27 | 292 | 9.7 | 16.1 | 0.00 | 0.00 | 0.00 | 23 | 1019.2 |
| 20260906222022 | 27 | 282 | 17.7 | 24.1 | 0.00 | 0.00 | 0.00 | 22 | 1019.1 |
| 20260906221521 | 27 | 279 | 12.9 | 22.5 | 0.00 | 0.00 | 0.00 | 23 | 1019.2 |
| 20260906221017 | 27 | 300 | 9.7 | 22.5 | 0.00 | 0.00 | 0.00 | 23 | 1019.1 |
| 20260906220516 | 27 | 259 | 12.9 | 14.5 | 0.00 | 0.00 | 0.00 | 23 | 1019.2 |
| 20260906220012 | 27 | 310 | 9.7 | 14.5 | 0.00 | 0.00 | 0.00 | 23 | 1019.5 |
| 20260906215506 | 27 | 281 | 11.3 | 22.5 | 0.00 | 0.00 | 0.00 | 24 | 1019.3 |
| 20260906215003 | 26 | 290 | 11.3 | 17.7 | 0.00 | 0.00 | 0.00 | 24 | 1019.6 |
| 20260906214502 | 26 | 60 | 3.2 | 9.7 | 0.00 | 0.00 | 0.00 | 25 | 1019.6 |
| 20260906213957 | 26 | 300 | 8.0 | 16.1 | 0.00 | 0.00 | 0.00 | 25 | 1019.6 |
| 20260906213457 | 26 | 311 | 8.0 | 9.7 | 0.00 | 0.00 | 0.00 | 23 | 1019.6 |
| 20260906212955 | 26 | 299 | 6.4 | 16.1 | 0.00 | 0.00 | 0.00 | 24 | 1019.7 |
| 20260906212450 | 27 | 316 | 4.8 | 14.5 | 0.00 | 0.00 | 0.00 | 22 | 1020.0 |
| 20260906211946 | 27 | 335 | 8.0 | 9.7 | 0.00 | 0.00 | 0.00 | 22 | 1020.1 |
| 20260906211446 | 27 | 323 | 8.0 | 12.9 | 0.00 | 0.00 | 0.00 | 23 | 1020.0 |
| 20260906210942 | 26 | 288 | 4.8 | 11.3 | 0.00 | 0.00 | 0.00 | 25 | 1020.3 |
| 20260906210437 | 25 | 310 | 4.8 | 4.8 | 0.00 | 0.00 | 0.00 | 28 | 1020.1 |
| 20260906205936 | 25 | 43 | 3.2 | 4.8 | 0.00 | 0.00 | 0.00 | 28 | 1020.2 |
| 20260906205432 | 25 | 11 | 1.6 | 6.4 | 0.00 | 0.00 | 0.00 | 27 | 1020.5 |
| 20260906204928 | 26 | 298 | 4.8 | 6.4 | 0.00 | 0.00 | 0.00 | 26 | 1020.3 |
| 20260906204422 | 27 | 80 | 6.4 | 8.0 | 0.00 | 0.00 | 0.00 | 24 | 1020.5 |
| 20260906203921 | 27 | 88 | 6.4 | 9.7 | 0.00 | 0.00 | 0.00 | 23 | 1020.3 |
| 20260906203417 | 27 | 72 | 4.8 | 9.7 | 0.00 | 0.00 | 0.00 | 25 | 1020.7 |
| 20260906202914 | 27 | 14 | 3.2 | 9.7 | 0.00 | 0.00 | 0.00 | 24 | 1020.7 |
| 20260906202413 | 27 | 85 | 4.8 | 12.9 | 0.00 | 0.00 | 0.00 | 24 | 1020.5 |
| 20260906201913 | 26 | 39 | 4.8 | 11.3 | 0.00 | 0.00 | 0.00 | 24 | 1020.7 |
| 20260906201408 | 27 | 86 | 6.4 | 16.1 | 0.00 | 0.00 | 0.00 | 24 | 1021.1 |
| 20260906200903 | 26 | 4 | 4.8 | 9.7 | 0.00 | 0.00 | 0.00 | 24 | 1021.2 |
| 20260906200400 | 26 | 334 | 3.2 | 11.3 | 0.00 | 0.00 | 0.00 | 25 | 1021.2 |
| 20260906195859 | 26 | 286 | 4.8 | 11.3 | 0.00 | 0.00 | 0.00 | 25 | 1021.1 |
| 20260906195356 | 25 | 314 | 8.0 | 8.0 | 0.00 | 0.00 | 0.00 | 26 | 1021.1 |
| 20260906194852 | 25 | 296 | 9.7 | 9.7 | 0.00 | 0.00 | 0.00 | 25 | 1021.2 |
| 20260906194347 | 26 | 8 | 8.0 | 9.7 | 0.00 | 0.00 | 0.00 | 27 | 1021.4 |
| 20260906193842 | 26 | 324 | 8.0 | 14.5 | 0.00 | 0.00 | 0.00 | 24 | 1021.1 |
| 20260906193337 | 25 | 334 | 9.7 | 9.7 | 0.00 | 0.00 | 0.00 | 25 | 1021.4 |
| 20260906192833 | 26 | 325 | 8.0 | 11.3 | 0.00 | 0.00 | 0.00 | 25 | 1021.2 |
| 20260906192327 | 26 | 312 | 11.3 | 11.3 | 0.00 | 0.00 | 0.00 | 25 | 1021.4 |
| 20260906191826 | 26 | 5 | 8.0 | 9.7 | 0.00 | 0.00 | 0.00 | 24 | 1021.5 |
| 20260906191321 | 26 | 13 | 3.2 | 8.0 | 0.00 | 0.00 | 0.00 | 26 | 1021.5 |
| 20260906190815 | 25 | 341 | 4.8 | 11.3 | 0.00 | 0.00 | 0.00 | 25 | 1021.4 |
| 20260906190315 | 25 | 309 | 6.4 | 12.9 | 0.00 | 0.00 | 0.00 | 25 | 1021.7 |
| 20260906185814 | 25 | 298 | 11.3 | 17.7 | 0.00 | 0.00 | 0.00 | 24 | 1021.7 |
| 20260906185314 | 26 | 317 | 12.9 | 19.3 | 0.00 | 0.00 | 0.00 | 24 | 1021.9 |
| 20260906184808 | 26 | 343 | 6.4 | 11.3 | 0.00 | 0.00 | 0.00 | 23 | 1022.0 |
| 20260906184303 | 25 | 3 | 8.0 | 16.1 | 0.00 | 0.00 | 0.00 | 25 | 1022.1 |
| 20260906183759 | 25 | 306 | 8.0 | 12.9 | 0.00 | 0.00 | 0.00 | 25 | 1022.2 |
| 20260906183255 | 25 | 325 | 11.3 | 14.5 | 0.00 | 0.00 | 0.00 | 24 | 1022.1 |
| 20260906182755 | 25 | 318 | 9.7 | 14.5 | 0.00 | 0.00 | 0.00 | 25 | 1022.6 |
| 20260906182251 | 24 | 294 | 11.3 | 16.1 | 0.00 | 0.00 | 0.00 | 26 | 1022.4 |
| 20260906181746 | 24 | 314 | 8.0 | 11.3 | 0.00 | 0.00 | 0.00 | 25 | 1022.5 |
| 20260906181243 | 24 | 315 | 12.9 | 17.7 | 0.00 | 0.00 | 0.00 | 26 | 1022.9 |
| 20260906180743 | 23 | 316 | 8.0 | 16.1 | 0.00 | 0.00 | 0.00 | 24 | 1022.6 |
| 20260906180238 | 25 | 308 | 11.3 | 16.1 | 0.00 | 0.00 | 0.00 | 25 | 1022.6 |
| 20260906175735 | 25 | 345 | 8.0 | 12.9 | 0.00 | 0.00 | 0.00 | 26 | 1023.0 |
| 20260906175231 | 24 | 338 | 4.8 | 14.5 | 0.00 | 0.00 | 0.00 | 27 | 1023.4 |
| 20260906174730 | 24 | 317 | 9.7 | 14.5 | 0.00 | 0.00 | 0.00 | 26 | 1023.5 |
| 20260906174229 | 24 | 281 | 6.4 | 9.7 | 0.00 | 0.00 | 0.00 | 25 | 1023.2 |
| 20260906173724 | 25 | 336 | 6.4 | 12.9 | 0.00 | 0.00 | 0.00 | 26 | 1023.4 |
| 20260906173221 | 25 | 9 | 6.4 | 8.0 | 0.00 | 0.00 | 0.00 | 25 | 1023.1 |
| 20260906172719 | 24 | 341 | 6.4 | 9.7 | 0.00 | 0.00 | 0.00 | 28 | 1023.6 |
| 20260906172215 | 23 | 21 | 3.2 | 9.7 | 0.00 | 0.00 | 0.00 | 27 | 1023.5 |
| 20260906171710 | 23 | 54 | 6.4 | 11.3 | 0.00 | 0.00 | 0.00 | 26 | 1023.6 |
| 20260906171205 | 23 | 330 | 4.8 | 8.0 | 0.00 | 0.00 | 0.00 | 26 | 1023.6 |
| 20260906170701 | 23 | 349 | 4.8 | 8.0 | 0.00 | 0.00 | 0.00 | 27 | 1023.6 |
| 20260906170201 | 23 | 20 | 4.8 | 14.5 | 0.00 | 0.00 | 0.00 | 25 | 1023.6 |
| 20260906165657 | 23 | 18 | 3.2 | 8.0 | 0.00 | 0.00 | 0.00 | 29 | 1023.9 |
| 20260906165152 | 23 | 10 | 4.8 | 6.4 | 0.00 | 0.00 | 0.00 | 29 | 1023.7 |
| 20260906164646 | 23 | 349 | 6.4 | 8.0 | 0.00 | 0.00 | 0.00 | 30 | 1023.9 |
| 20260906164141 | 23 | 326 | 4.8 | 4.8 | 0.00 | 0.00 | 0.00 | 29 | 1024.0 |
| 20260906163637 | 22 | 335 | 3.2 | 4.8 | 0.00 | 0.00 | 0.00 | 32 | 1023.9 |
| 20260906163132 | 22 | 12 | 3.2 | 8.0 | 0.00 | 0.00 | 0.00 | 35 | 1024.1 |
| 20260906162629 | 21 | 343 | 3.2 | 6.4 | 0.00 | 0.00 | 0.00 | 32 | 1024.0 |
| 20260906162130 | 21 | 31 | 4.8 | 6.4 | 0.00 | 0.00 | 0.00 | 34 | 1024.1 |
| 20260906161629 | 21 | 338 | 3.2 | 8.0 | 0.00 | 0.00 | 0.00 | 35 | 1023.9 |
| 20260906161128 | 20 | 69 | 6.4 | 6.4 | 0.00 | 0.00 | 0.00 | 37 | 1024.2 |
| 20260906160627 | 20 | 39 | 1.6 | 6.4 | 0.00 | 0.00 | 0.00 | 38 | 1024.2 |
| 20260906160126 | 19 | 22 | 0.0 | 6.4 | 0.00 | 0.00 | 0.00 | 37 | 1024.1 |
| 20260906155624 | 19 | 86 | 4.8 | 6.4 | 0.00 | 0.00 | 0.00 | 40 | 1023.9 |
| 20260906155120 | 18 | 92 | 3.2 | 8.0 | 0.00 | 0.00 | 0.00 | 43 | 1024.1 |
| 20260906154615 | 17 | 71 | 4.8 | 9.7 | 0.00 | 0.00 | 0.00 | 44 | 1023.7 |
| 20260906154114 | 17 | 120 | 1.6 | 6.4 | 0.00 | 0.00 | 0.00 | 44 | 1024.0 |
| 20260906153613 | 16 | 324 | 0.0 | 4.8 | 0.00 | 0.00 | 0.00 | 47 | 1024.1 |
| 20260906153108 | 16 | 111 | 3.2 | 6.4 | 0.00 | 0.00 | 0.00 | 45 | 1024.0 |
| 20260906152603 | 17 | 67 | 3.2 | 9.7 | 0.00 | 0.00 | 0.00 | 45 | 1024.0 |
| 20260906152103 | 17 | 102 | 6.4 | 8.0 | 0.00 | 0.00 | 0.00 | 46 | 1024.1 |
| 20260906151558 | 16 | 39 | 6.4 | 8.0 | 0.00 | 0.00 | 0.00 | 46 | 1024.4 |
| 20260906151053 | 15 | 130 | 3.2 | 6.4 | 0.00 | 0.00 | 0.00 | 49 | 1024.4 |
| 20260906150548 | 15 | 73 | 4.8 | 6.4 | 0.00 | 0.00 | 0.00 | 52 | 1024.1 |
| 20260906150043 | 14 | 63 | 1.6 | 3.2 | 0.00 | 0.00 | 0.00 | 51 | 1024.1 |
| 20260906145542 | 14 | 30 | 1.6 | 4.8 | 0.00 | 0.00 | 0.00 | 49 | 1024.2 |
| 20260906145038 | 15 | 38 | 3.2 | 6.4 | 0.00 | 0.00 | 0.00 | 47 | 1024.2 |
| 20260906144532 | 14 | 15 | 0.0 | 3.2 | 0.00 | 0.00 | 0.00 | 48 | 1024.2 |
| 20260906144027 | 14 | 82 | 3.2 | 6.4 | 0.00 | 0.00 | 0.00 | 50 | 1024.1 |
| 20260906143522 | 12 | 69 | 1.6 | 3.2 | 0.00 | 0.00 | 0.00 | 54 | 1024.2 |
| 20260906143019 | 12 | 65 | 1.6 | 3.2 | 0.00 | 0.00 | 0.00 | 58 | 1024.4 |
| 20260906142518 | 12 | 107 | 0.0 | 3.2 | 0.00 | 0.00 | 0.00 | 56 | 1024.4 |
| 20260906142014 | 12 | 99 | 0.0 | 4.8 | 0.00 | 0.00 | 0.00 | 57 | 1024.5 |
| 20260906141513 | 12 | 18 | 1.6 | 3.2 | 0.00 | 0.00 | 0.00 | 56 | 1024.4 |
| 20260906141003 | 12 | 107 | 0.0 | 3.2 | 0.00 | 0.00 | 0.00 | 56 | 1024.2 |
| 20260906140503 | 11 | 227 | 0.0 | 3.2 | 0.00 | 0.00 | 0.00 | 56 | 1024.2 |
| 20260906140001 | 11 | 98 | 0.0 | 4.8 | 0.00 | 0.00 | 0.00 | 56 | 1024.1 |
| 20260906135459 | 11 | 162 | 0.0 | 6.4 | 0.00 | 0.00 | 0.00 | 55 | 1024.1 |
| 20260906134954 | 12 | 149 | 0.0 | 3.2 | 0.00 | 0.00 | 0.00 | 54 | 1024.1 |
| 20260906134450 | 12 | 306 | 1.6 | 6.4 | 0.00 | 0.00 | 0.00 | 55 | 1023.9 |
| 20260906133950 | 11 | 316 | 1.6 | 3.2 | 0.00 | 0.00 | 0.00 | 58 | 1024.2 |
| 20260906133446 | 11 | 139 | 1.6 | 3.2 | 0.00 | 0.00 | 0.00 | 59 | 1024.1 |
| 20260906132942 | 11 | 340 | 3.2 | 4.8 | 0.00 | 0.00 | 0.00 | 59 | 1024.0 |
| 20260906132437 | 11 | 142 | 3.2 | 3.2 | 0.00 | 0.00 | 0.00 | 59 | 1023.9 |
| 20260906131932 | 11 | 283 | 1.6 | 4.8 | 0.00 | 0.00 | 0.00 | 59 | 1024.0 |
| 20260906131427 | 11 | 280 | 3.2 | 4.8 | 0.00 | 0.00 | 0.00 | 59 | 1023.7 |
| 20260906130923 | 10 | 268 | 0.0 | 4.8 | 0.00 | 0.00 | 0.00 | 60 | 1023.5 |
| 20260906130422 | 10 | 259 | 1.6 | 3.2 | 0.00 | 0.00 | 0.00 | 61 | 1023.7 |
| 20260906125922 | 10 | 333 | 0.0 | 4.8 | 0.00 | 0.00 | 0.00 | 62 | 1023.6 |
| 20260906125420 | 10 | 19 | 0.0 | 3.2 | 0.00 | 0.00 | 0.00 | 62 | 1023.7 |
| 20260906124919 | 10 | 197 | 0.0 | 3.2 | 0.00 | 0.00 | 0.00 | 63 | 1023.6 |
| 20260906124415 | 10 | 122 | 3.2 | 4.8 | 0.00 | 0.00 | 0.00 | 61 | 1023.5 |
| 20260906123910 | 10 | 4 | 1.6 | 3.2 | 0.00 | 0.00 | 0.00 | 59 | 1023.7 |
| 20260906123410 | 10 | 228 | 0.0 | 3.2 | 0.00 | 0.00 | 0.00 | 59 | 1023.4 |
| 20260906122909 | 10 | 352 | 0.0 | 3.2 | 0.00 | 0.00 | 0.00 | 59 | 1023.5 |
| 20260906122404 | 11 | 135 | 0.0 | 4.8 | 0.00 | 0.00 | 0.00 | 57 | 1023.4 |
| 20260906121901 | 11 | 76 | 3.2 | 4.8 | 0.00 | 0.00 | 0.00 | 58 | 1023.4 |
| 20260906121357 | 11 | 111 | 3.2 | 4.8 | 0.00 | 0.00 | 0.00 | 57 | 1023.2 |
| 20260906120853 | 11 | 82 | 0.0 | 4.8 | 0.00 | 0.00 | 0.00 | 55 | 1023.6 |
| 20260906120348 | 11 | 316 | 1.6 | 3.2 | 0.00 | 0.00 | 0.00 | 55 | 1023.5 |
| 20260906115845 | 11 | 99 | 0.0 | 0.0 | 0.00 | 0.00 | 0.00 | 55 | 1023.4 |
| 20260906115339 | 11 | 165 | 1.6 | 3.2 | 0.00 | 0.00 | 0.00 | 55 | 1023.5 |
| 20260906114839 | 11 | 118 | 1.6 | 3.2 | 0.00 | 0.00 | 0.00 | 56 | 1023.7 |
| 20260906114334 | 11 | 284 | 0.0 | 3.2 | 0.00 | 0.00 | 0.00 | 56 | 1023.6 |
| 20260906113829 | 11 | 104 | 3.2 | 3.2 | 0.00 | 0.00 | 0.00 | 56 | 1023.4 |
| 20260906113328 | 11 | 309 | 1.6 | 3.2 | 0.00 | 0.00 | 0.00 | 57 | 1023.6 |
| 20260906112824 | 11 | 307 | 3.2 | 6.4 | 0.00 | 0.00 | 0.00 | 55 | 1023.7 |
| 20260906112320 | 11 | 96 | 4.8 | 6.4 | 0.00 | 0.00 | 0.00 | 56 | 1023.2 |
| 20260906111820 | 11 | 201 | 1.6 | 3.2 | 0.00 | 0.00 | 0.00 | 57 | 1023.4 |
| 20260906111319 | 11 | 94 | 3.2 | 3.2 | 0.00 | 0.00 | 0.00 | 57 | 1023.5 |
| 20260906110815 | 11 | 319 | 0.0 | 3.2 | 0.00 | 0.00 | 0.00 | 58 | 1023.5 |
| 20260906110311 | 11 | 115 | 1.6 | 3.2 | 0.00 | 0.00 | 0.00 | 59 | 1023.5 |
| 20260906105809 | 11 | 140 | 3.2 | 3.2 | 0.00 | 0.00 | 0.00 | 58 | 1023.5 |
| 20260906105306 | 11 | 105 | 1.6 | 4.8 | 0.00 | 0.00 | 0.00 | 58 | 1023.4 |
| 20260906104801 | 11 | 10 | 0.0 | 4.8 | 0.00 | 0.00 | 0.00 | 58 | 1023.5 |
| 20260906104259 | 11 | 153 | 3.2 | 4.8 | 0.00 | 0.00 | 0.00 | 57 | 1023.6 |
| 20260906103758 | 12 | 118 | 4.8 | 4.8 | 0.00 | 0.00 | 0.00 | 55 | 1023.4 |
| 20260906103257 | 12 | 114 | 0.0 | 4.8 | 0.00 | 0.00 | 0.00 | 54 | 1023.6 |
| 20260906102753 | 12 | 108 | 0.0 | 3.2 | 0.00 | 0.00 | 0.00 | 53 | 1023.0 |
| 20260906102251 | 12 | 234 | 0.0 | 4.8 | 0.00 | 0.00 | 0.00 | 54 | 1023.4 |
| 20260906101747 | 11 | 135 | 0.0 | 3.2 | 0.00 | 0.00 | 0.00 | 55 | 1023.2 |
| 20260906101242 | 11 | 141 | 1.6 | 3.2 | 0.00 | 0.00 | 0.00 | 55 | 1023.4 |
| 20260906100737 | 12 | 103 | 0.0 | 1.6 | 0.00 | 0.00 | 0.00 | 54 | 1023.5 |
| 20260906100237 | 12 | 46 | 0.0 | 3.2 | 0.00 | 0.00 | 0.00 | 53 | 1023.2 |
| 20260906095732 | 12 | 292 | 3.2 | 3.2 | 0.00 | 0.00 | 0.00 | 53 | 1023.4 |
| 20260906095227 | 12 | 103 | 3.2 | 3.2 | 0.00 | 0.00 | 0.00 | 54 | 1023.1 |
| 20260906094726 | 12 | 179 | 0.0 | 3.2 | 0.00 | 0.00 | 0.00 | 53 | 1022.9 |
| 20260906094221 | 12 | 156 | 0.0 | 3.2 | 0.00 | 0.00 | 0.00 | 55 | 1022.9 |
| 20260906093718 | 11 | 119 | 1.6 | 4.8 | 0.00 | 0.00 | 0.00 | 55 | 1023.1 |
| 20260906093213 | 12 | 253 | 0.0 | 3.2 | 0.00 | 0.00 | 0.00 | 54 | 1023.0 |
| 20260906092709 | 12 | 133 | 1.6 | 4.8 | 0.00 | 0.00 | 0.00 | 53 | 1022.9 |
| 20260906092208 | 12 | 145 | 0.0 | 4.8 | 0.00 | 0.00 | 0.00 | 54 | 1023.0 |
| 20260906091704 | 12 | 155 | 1.6 | 4.8 | 0.00 | 0.00 | 0.00 | 54 | 1023.0 |
| 20260906091200 | 12 | 240 | 0.0 | 1.6 | 0.00 | 0.00 | 0.00 | 53 | 1023.0 |
| 20260906090656 | 12 | 113 | 4.8 | 4.8 | 0.00 | 0.00 | 0.00 | 52 | 1022.9 |
| 20260906090156 | 12 | 93 | 0.0 | 4.8 | 0.00 | 0.00 | 0.00 | 51 | 1023.1 |
| 20260906085655 | 13 | 65 | 0.0 | 3.2 | 0.00 | 0.00 | 0.00 | 50 | 1022.9 |
| 20260906085154 | 13 | 26 | 3.2 | 6.4 | 0.00 | 0.00 | 0.00 | 47 | 1023.1 |
| 20260906084649 | 13 | 273 | 3.2 | 6.4 | 0.00 | 0.00 | 0.00 | 47 | 1023.1 |
| 20260906084148 | 14 | 173 | 0.0 | 4.8 | 0.00 | 0.00 | 0.00 | 47 | 1022.7 |
| 20260906083643 | 13 | 135 | 0.0 | 3.2 | 0.00 | 0.00 | 0.00 | 47 | 1023.0 |
| 20260906083139 | 13 | 293 | 0.0 | 1.6 | 0.00 | 0.00 | 0.00 | 48 | 1022.9 |
| 20260906082634 | 13 | 298 | 0.0 | 3.2 | 0.00 | 0.00 | 0.00 | 50 | 1022.9 |
| 20260906082130 | 13 | 65 | 1.6 | 3.2 | 0.00 | 0.00 | 0.00 | 49 | 1022.7 |
| 20260906081626 | 13 | 152 | 1.6 | 3.2 | 0.00 | 0.00 | 0.00 | 49 | 1022.9 |
| 20260906081120 | 13 | 174 | 0.0 | 3.2 | 0.00 | 0.00 | 0.00 | 50 | 1023.1 |
| 20260906080617 | 13 | 153 | 0.0 | 3.2 | 0.00 | 0.00 | 0.00 | 50 | 1023.2 |
| 20260906080113 | 14 | 66 | 0.0 | 3.2 | 0.00 | 0.00 | 0.00 | 49 | 1022.9 |
| 20260906075606 | 14 | 77 | 1.6 | 3.2 | 0.00 | 0.00 | 0.00 | 48 | 1023.0 |
| 20260906075101 | 14 | 304 | 1.6 | 3.2 | 0.00 | 0.00 | 0.00 | 48 | 1022.7 |
| 20260906074556 | 14 | 328 | 0.0 | 3.2 | 0.00 | 0.00 | 0.00 | 48 | 1022.9 |
| 20260906074055 | 13 | 65 | 3.2 | 4.8 | 0.00 | 0.00 | 0.00 | 48 | 1022.7 |
| 20260906073550 | 13 | 347 | 1.6 | 3.2 | 0.00 | 0.00 | 0.00 | 49 | 1023.0 |
| 20260906073047 | 13 | 129 | 0.0 | 3.2 | 0.00 | 0.00 | 0.00 | 48 | 1023.0 |
| 20260906072546 | 13 | 302 | 0.0 | 3.2 | 0.00 | 0.00 | 0.00 | 48 | 1022.9 |
| 20260906072042 | 13 | 110 | 0.0 | 3.2 | 0.00 | 0.00 | 0.00 | 49 | 1023.0 |
| 20260906071539 | 13 | 33 | 0.0 | 4.8 | 0.00 | 0.00 | 0.00 | 49 | 1023.0 |
| 20260906071033 | 13 | 353 | 0.0 | 3.2 | 0.00 | 0.00 | 0.00 | 49 | 1023.2 |
| 20260906070530 | 14 | 345 | 0.0 | 1.6 | 0.00 | 0.00 | 0.00 | 49 | 1023.0 |
| 20260906070025 | 14 | 8 | 0.0 | 3.2 | 0.00 | 0.00 | 0.00 | 49 | 1022.9 |
| 20260906065524 | 14 | 145 | 0.0 | 3.2 | 0.00 | 0.00 | 0.00 | 48 | 1023.0 |
| 20260906065020 | 14 | 136 | 0.0 | 3.2 | 0.00 | 0.00 | 0.00 | 48 | 1022.7 |
| 20260906064517 | 14 | 335 | 0.0 | 3.2 | 0.00 | 0.00 | 0.00 | 48 | 1022.7 |
| 20260906064017 | 13 | 140 | 0.0 | 1.6 | 0.00 | 0.00 | 0.00 | 50 | 1023.1 |
| 20260906063512 | 13 | 160 | 0.0 | 0.0 | 0.00 | 0.00 | 0.00 | 50 | 1023.1 |
| 20260906063008 | 13 | 147 | 0.0 | 1.6 | 0.00 | 0.00 | 0.00 | 50 | 1023.1 |
| 20260906062503 | 14 | 60 | 0.0 | 0.0 | 0.00 | 0.00 | 0.00 | 48 | 1022.9 |
| 20260906061957 | 15 | 293 | 0.0 | 1.6 | 0.00 | 0.00 | 0.00 | 47 | 1022.7 |
| 20260906061454 | 15 | 135 | 0.0 | 0.0 | 0.00 | 0.00 | 0.00 | 46 | 1022.9 |
| 20260906060953 | 15 | 152 | 1.6 | 3.2 | 0.00 | 0.00 | 0.00 | 46 | 1022.7 |
| 20260906060450 | 15 | 97 | 3.2 | 3.2 | 0.00 | 0.00 | 0.00 | 44 | 1022.6 |
| 20260906055946 | 15 | 59 | 0.0 | 4.8 | 0.00 | 0.00 | 0.00 | 43 | 1022.9 |
| 20260906055442 | 16 | 93 | 3.2 | 8.0 | 0.00 | 0.00 | 0.00 | 41 | 1022.6 |
| 20260906054937 | 16 | 37 | 0.0 | 0.0 | 0.00 | 0.00 | 0.00 | 39 | 1022.6 |
| 20260906054432 | 16 | 309 | 0.0 | 0.0 | 0.00 | 0.00 | 0.00 | 39 | 1022.2 |
| 20260906053928 | 16 | 326 | 0.0 | 0.0 | 0.00 | 0.00 | 0.00 | 39 | 1022.6 |
| 20260906053424 | 16 | 279 | 0.0 | 1.6 | 0.00 | 0.00 | 0.00 | 39 | 1022.9 |
| 20260906052919 | 16 | 44 | 0.0 | 0.0 | 0.00 | 0.00 | 0.00 | 40 | 1022.9 |
| 20260906052415 | 16 | 37 | 0.0 | 0.0 | 0.00 | 0.00 | 0.00 | 40 | 1023.0 |
| 20260906051912 | 16 | 293 | 0.0 | 0.0 | 0.00 | 0.00 | 0.00 | 40 | 1022.9 |
| 20260906051412 | 16 | 293 | 0.0 | 0.0 | 0.00 | 0.00 | 0.00 | 40 | 1022.9 |
| 20260906050908 | 16 | 230 | 0.0 | 0.0 | 0.00 | 0.00 | 0.00 | 40 | 1022.5 |
| 20260906050408 | 16 | 37 | 0.0 | 0.0 | 0.00 | 0.00 | 0.00 | 41 | 1022.7 |
| 20260906045907 | 16 | 324 | 0.0 | 1.6 | 0.00 | 0.00 | 0.00 | 41 | 1022.6 |
| 20260906045406 | 16 | 279 | 1.6 | 3.2 | 0.00 | 0.00 | 0.00 | 42 | 1022.7 |
| 20260906044903 | 16 | 329 | 0.0 | 0.0 | 0.00 | 0.00 | 0.00 | 42 | 1022.7 |
| 20260906044402 | 16 | 309 | 0.0 | 1.6 | 0.00 | 0.00 | 0.00 | 42 | 1022.6 |
| 20260906043858 | 17 | 269 | 0.0 | 1.6 | 0.00 | 0.00 | 0.00 | 41 | 1022.9 |
| 20260906043355 | 17 | 122 | 0.0 | 3.2 | 0.00 | 0.00 | 0.00 | 41 | 1022.7 |
| 20260906042855 | 17 | 102 | 1.6 | 3.2 | 0.00 | 0.00 | 0.00 | 40 | 1022.7 |
| 20260906042353 | 17 | 137 | 0.0 | 3.2 | 0.00 | 0.00 | 0.00 | 39 | 1022.6 |
| 20260906041849 | 18 | 315 | 0.0 | 0.0 | 0.00 | 0.00 | 0.00 | 38 | 1022.5 |
| 20260906041345 | 17 | 129 | 0.0 | 0.0 | 0.00 | 0.00 | 0.00 | 38 | 1022.6 |
| 20260906040845 | 17 | 326 | 0.0 | 0.0 | 0.00 | 0.00 | 0.00 | 38 | 1022.6 |
| 20260906040340 | 18 | 89 | 0.0 | 0.0 | 0.00 | 0.00 | 0.00 | 38 | 1022.9 |
| 20260906035835 | 18 | 260 | 0.0 | 1.6 | 0.00 | 0.00 | 0.00 | 37 | 1022.7 |
| 20260906035331 | 18 | 224 | 0.0 | 1.6 | 0.00 | 0.00 | 0.00 | 37 | 1022.7 |
| 20260906034827 | 18 | 89 | 0.0 | 1.6 | 0.00 | 0.00 | 0.00 | 37 | 1022.5 |
| 20260906034327 | 18 | 133 | 0.0 | 0.0 | 0.00 | 0.00 | 0.00 | 36 | 1022.6 |
| 20260906033823 | 18 | 154 | 0.0 | 0.0 | 0.00 | 0.00 | 0.00 | 36 | 1022.4 |
| 20260906033321 | 18 | 159 | 1.6 | 3.2 | 0.00 | 0.00 | 0.00 | 34 | 1022.7 |
| 20260906032818 | 19 | 235 | 0.0 | 1.6 | 0.00 | 0.00 | 0.00 | 33 | 1022.5 |
| 20260906032314 | 19 | 50 | 0.0 | 1.6 | 0.00 | 0.00 | 0.00 | 32 | 1022.5 |
| 20260906031809 | 19 | 50 | 0.0 | 1.6 | 0.00 | 0.00 | 0.00 | 32 | 1022.4 |
| 20260906031304 | 20 | 197 | 0.0 | 1.6 | 0.00 | 0.00 | 0.00 | 32 | 1022.4 |
| 20260906030804 | 19 | 3 | 0.0 | 4.8 | 0.00 | 0.00 | 0.00 | 33 | 1022.2 |
| 20260906030259 | 19 | 15 | 1.6 | 3.2 | 0.00 | 0.00 | 0.00 | 33 | 1022.1 |
| 20260906025759 | 19 | 307 | 0.0 | 3.2 | 0.00 | 0.00 | 0.00 | 33 | 1022.0 |
| 20260906025253 | 20 | 193 | 0.0 | 3.2 | 0.00 | 0.00 | 0.00 | 34 | 1022.0 |
| 20260906024752 | 20 | 305 | 3.2 | 3.2 | 0.00 | 0.00 | 0.00 | 33 | 1022.0 |
| 20260906024251 | 20 | 300 | 4.8 | 6.4 | 0.00 | 0.00 | 0.00 | 32 | 1021.9 |
| 20260906023747 | 20 | 259 | 1.6 | 4.8 | 0.00 | 0.00 | 0.00 | 32 | 1021.9 |
| 20260906023242 | 20 | 284 | 1.6 | 4.8 | 0.00 | 0.00 | 0.00 | 32 | 1022.0 |
| 20260906022738 | 20 | 17 | 0.0 | 3.2 | 0.00 | 0.00 | 0.00 | 32 | 1022.1 |
| 20260906022233 | 20 | 314 | 3.2 | 4.8 | 0.00 | 0.00 | 0.00 | 32 | 1021.9 |
| 20260906021729 | 20 | 322 | 0.0 | 1.6 | 0.00 | 0.00 | 0.00 | 33 | 1021.6 |
| 20260906021227 | 20 | 9 | 0.0 | 3.2 | 0.00 | 0.00 | 0.00 | 33 | 1021.5 |
| 20260906020723 | 20 | 309 | 3.2 | 3.2 | 0.00 | 0.00 | 0.00 | 33 | 1021.5 |
| 20260906020217 | 20 | 20 | 0.0 | 3.2 | 0.00 | 0.00 | 0.00 | 33 | 1021.6 |
| 20260906015712 | 20 | 96 | 0.0 | 1.6 | 0.00 | 0.00 | 0.00 | 33 | 1021.1 |
| 20260906015210 | 20 | 345 | 1.6 | 4.8 | 0.00 | 0.00 | 0.00 | 32 | 1021.5 |
| 20260906014710 | 20 | 96 | 0.0 | 1.6 | 0.00 | 0.00 | 0.00 | 31 | 1021.5 |
| 20260906014207 | 21 | 86 | 1.6 | 3.2 | 0.00 | 0.00 | 0.00 | 31 | 1021.4 |
| 20260906013702 | 21 | 287 | 1.6 | 3.2 | 0.00 | 0.00 | 0.00 | 31 | 1021.4 |
| 20260906013157 | 21 | 310 | 1.6 | 3.2 | 0.00 | 0.00 | 0.00 | 29 | 1021.1 |
| 20260906012658 | 22 | 327 | 4.8 | 6.4 | 0.00 | 0.00 | 0.00 | 29 | 1021.5 |
| 20260906012157 | 22 | 263 | 0.0 | 4.8 | 0.00 | 0.00 | 0.00 | 30 | 1021.6 |
| 20260906011653 | 22 | 14 | 1.6 | 3.2 | 0.00 | 0.00 | 0.00 | 29 | 1021.2 |
| 20260906011148 | 22 | 64 | 0.0 | 6.4 | 0.00 | 0.00 | 0.00 | 28 | 1021.5 |
| 20260906010643 | 22 | 311 | 6.4 | 8.0 | 0.00 | 0.00 | 0.00 | 28 | 1021.6 |
| 20260906010139 | 23 | 320 | 4.8 | 9.7 | 0.00 | 0.00 | 0.00 | 28 | 1021.5 |
| 20260906005639 | 23 | 300 | 4.8 | 9.7 | 0.00 | 0.00 | 0.00 | 27 | 1021.2 |
| 20260906005138 | 23 | 322 | 4.8 | 6.4 | 0.00 | 0.00 | 0.00 | 27 | 1021.6 |
| 20260906004637 | 24 | 275 | 6.4 | 9.7 | 0.00 | 0.00 | 0.00 | 27 | 1021.5 |
| 20260906004132 | 24 | 302 | 9.7 | 9.7 | 0.00 | 0.00 | 0.00 | 26 | 1021.6 |
| 20260906003627 | 24 | 318 | 8.0 | 9.7 | 0.00 | 0.00 | 0.00 | 26 | 1021.4 |
| 20260906003123 | 25 | 310 | 8.0 | 9.7 | 0.00 | 0.00 | 0.00 | 25 | 1021.4 |
| 20260906002618 | 25 | 330 | 8.0 | 9.7 | 0.00 | 0.00 | 0.00 | 25 | 1021.5 |
| 20260906002113 | 25 | 291 | 8.0 | 8.0 | 0.00 | 0.00 | 0.00 | 24 | 1021.6 |
| 20260906001608 | 25 | 306 | 8.0 | 12.9 | 0.00 | 0.00 | 0.00 | 25 | 1021.5 |
| 20260906001102 | 25 | 327 | 9.7 | 9.7 | 0.00 | 0.00 | 0.00 | 25 | 1021.4 |
| 20260906000558 | 25 | 310 | 8.0 | 8.0 | 0.00 | 0.00 | 0.00 | 26 | 1021.5 |
| 20260906000053 | 25 | 329 | 12.9 | 14.5 | 0.00 | 0.00 | 0.00 | 24 | 1021.5 |
| 20260905235552 | 26 | 291 | 12.9 | 12.9 | 0.00 | 0.00 | 0.00 | 24 | 1021.4 |
| 20260905235048 | 26 | 320 | 8.0 | 11.3 | 0.00 | 0.00 | 0.00 | 24 | 1021.5 |
| 20260905234543 | 26 | 341 | 4.8 | 14.5 | 0.00 | 0.00 | 0.00 | 25 | 1021.1 |
| 20260905234038 | 26 | 336 | 8.0 | 14.5 | 0.00 | 0.00 | 0.00 | 25 | 1021.5 |
| 20260905233532 | 25 | 310 | 11.3 | 14.5 | 0.00 | 0.00 | 0.00 | 26 | 1021.6 |
| 20260905233032 | 25 | 292 | 9.7 | 16.1 | 0.00 | 0.00 | 0.00 | 26 | 1021.2 |
| 20260905232528 | 25 | 308 | 12.9 | 14.5 | 0.00 | 0.00 | 0.00 | 26 | 1021.5 |
| 20260905232023 | 25 | 300 | 12.9 | 17.7 | 0.00 | 0.00 | 0.00 | 26 | 1021.4 |
| 20260905231518 | 26 | 318 | 11.3 | 14.5 | 0.00 | 0.00 | 0.00 | 25 | 1021.5 |
| 20260905231015 | 25 | 308 | 14.5 | 17.7 | 0.00 | 0.00 | 0.00 | 26 | 1021.0 |
| 20260905230514 | 26 | 320 | 8.0 | 14.5 | 0.00 | 0.00 | 0.00 | 26 | 1021.1 |